STARLINK-4763 (53805 NORAD) Tracking and Keplerian Element Data

This shows tracking and keplerian element data for the satellite.

Feedback or suggestion? Click here.




ElementValue
Catalog53805
NameSTARLINK-4763
Epoch Orbit130
Epoch Day324.91667824
Epoch Year2022
RAAN276.4236
Inclination53.2152
Eccentricity0.0003344
Argument of Perigee7.2901
Mean Anonmoly273.5165
Mean Motion15.73222198
Decay Rate-0.00024313
L11 53805U 22111AJ 22324.91667824 -.00024313 00000+0 -16907-3 0 9994
L22 53805 53.2152 276.4236 0003344 7.2901 273.5165 15.73222198 1307



Live tracking and technical data element details for STARLINK-4763 (NORAD 53805). STARLINK-4763 can be tracked NOW for your location showing map with azimuth and elevation plus other details from your city location.







IsCatalogInMostPopularTable: catalog: 53805, numindb: -1

Insert: records affected: 1


GetName: 53805 STARLINK-4763

Hit Count: inserted at: Mon, 28 Nov 2022 04:22:35 GMT